Home > Weather > Bloemfontein > Past weeks

Flag for South Africa Past Weather in Bloemfontein, South Africa — Yesterday and Last 2 Weeks

Now
50 °F

Passing clouds.


Feels Like: 49 °F
Forecast: 35 / 62 °F
Wind: 3 mph from Northeast

Location: Bloemfontein Airport

Current Time: Jun 25, 2016 at 10:58:19 AM

Latest Report: Jun 25, 2016 at 10:00 AM


Visibility: N/A

Pressure: 30.45 "Hg (25.73 "Hg at 1397m altitude)

Humidity: 62%

Dew Point: 37 °F

Location of BloemfonteinLocation

Past Weather in Bloemfontein — Graph

°F

Bloemfontein Temperature Yesterday

Maximum temperature yesterday: 68 °F (at 2:00 PM)
Minimum temperature yesterday: 34 °F (at 6:00 AM)
Average temperature yesterday: 48 °F

High & Low Weather Summary for the Past Weeks

 TemperatureHumidityPressure
High72 °F (Jun 19, 3:00 PM)100% (Jun 15, 6:00 AM)30.57 "Hg (Jun 15, 6:00 AM)
Low28 °F (Jun 12, 7:00 AM)19% (Jun 11, 2:00 PM)30.12 "Hg (Jun 18, 3:00 PM)
Average48 °F68%30.32 "Hg
* Reported Jun 10 9:00 AM — Jun 25 9:00 AM, Bloemfontein, Weather by CustomWeather, © 2016

Note: Actual official high and low records may vary slightly from our data, if they occured in-between our weather recording intervals... More about our weather records

Advertising

Bloemfontein Weather History for the Previous 24 Hours

Scroll right to see more
 ConditionsComfort  
Time TempWeatherWind HumidityBarometerVisibility
9:00 AM
Sat, Jun 25
45 °FSunny.1 mph71%30.42 "Hg10 mi
8:00 AM37 °FClear.No wind81%30.42 "Hg6 mi
7:00 AM32 °FSunny.1 mph93%30.39 "Hg10 mi
6:00 AM32 °FClear.2 mph93%30.39 "Hg5 mi
5:00 AM34 °FClear.No wind93%30.39 "Hg6 mi
4:00 AM34 °FChilly.2 mph93%30.36 "Hg4 mi
3:00 AM36 °FChilly.No wind87%30.39 "HgN/A
2:00 AM37 °FChilly.No wind81%30.42 "HgN/A
1:00 AM37 °FChilly.3 mph87%30.39 "Hg4 mi
12:00 AM39 °FChilly.3 mph87%30.39 "Hg4 mi
11:00 PM
Fri, Jun 24
41 °FQuite cool.No wind76%30.42 "HgN/A
10:00 PM45 °FQuite cool.2 mph71%30.42 "HgN/A
9:00 PM45 °FQuite cool.2 mph71%30.42 "HgN/A
8:00 PM46 °FClear.No wind62%30.42 "Hg10 mi
7:00 PM54 °FClear.1 mph47%30.39 "Hg10 mi
6:00 PM55 °FClear.2 mph44%30.39 "Hg10 mi
5:00 PM64 °FClear.2 mph28%30.39 "Hg10 mi
4:00 PM66 °FPassing clouds.5 mph26%30.39 "HgN/A
3:00 PM66 °FSunny.2 mph30%30.39 "Hg10 mi
2:00 PM68 °FSunny.1 mph26%30.42 "Hg10 mi
1:00 PM63 °FPassing clouds.5 mph39%30.45 "HgN/A
11:00 AM57 °FSunny.2 mph48%30.51 "Hg10 mi
10:00 AM50 °FSunny.2 mph67%30.51 "Hg10 mi
Weather by CustomWeather, © 2016

See weather overviewHow to use our weather pages